CW7701 Weather Reports


time (UTC)temp
C
wind
direction
speed
KPH
gust
KPH
rain 1hr
cm
rain 24hr
cm
rain mn
cm
humidity
%
barometer
mb
20260904231547 34 142 11.3 24.1 0.00 0.00 0.00 63 1009.0
20260904230045 35 155 9.7 19.3 0.00 0.00 0.00 61 1009.1
20260904224545 35 171 9.7 24.1 0.00 0.00 0.00 60 1009.1
20260904223041 35 148 9.7 17.7 0.00 0.00 0.00 60 1009.3
20260904221541 35 146 4.8 16.1 0.00 0.00 0.00 59 1009.2
20260904220100 35 157 8.0 17.7 0.00 0.00 0.00 60 1009.3
20260904214540 35 138 4.8 19.3 0.00 0.00 0.00 61 1009.4
20260904213036 35 139 9.7 17.7 0.00 0.00 0.00 61 1009.7
20260904211537 35 142 8.0 19.3 0.00 0.00 0.00 60 1009.8
20260904210041 35 153 4.8 17.7 0.00 0.00 0.00 61 1009.9
20260904204528 35 107 6.4 17.7 0.00 0.00 0.00 62 1009.8
20260904203041 35 161 11.3 19.3 0.00 0.00 0.00 61 1010.1
20260904201523 35 140 8.0 16.1 0.00 0.00 0.00 61 1010.3
20260904200023 35 156 9.7 17.7 0.00 0.00 0.00 60 1010.5
20260904194523 35 141 3.2 17.7 0.00 0.03 0.00 62 1010.6
20260904193018 35 156 9.7 17.7 0.00 0.03 0.00 62 1010.8
20260904191515 35 156 8.0 14.5 0.00 0.03 0.00 61 1010.8
20260904190012 35 166 8.0 14.5 0.00 0.03 0.00 58 1011.0
20260904184509 35 138 4.8 14.5 0.00 0.13 0.00 60 1011.0
20260904183007 35 147 4.8 14.5 0.00 0.13 0.00 60 1011.1
20260904181503 35 149 3.2 14.5 0.00 0.13 0.00 60 1011.3
20260904180120 35 147 4.8 11.3 0.00 0.13 0.00 63 1011.4
20260904174607 34 171 4.8 12.9 0.00 0.13 0.00 64 1011.6
20260904173051 33 348 1.6 6.4 0.00 0.13 0.00 63 1011.6
20260904171553 34 347 0.0 4.8 0.00 0.13 0.00 62 1011.4
20260904170049 33 347 0.0 6.4 0.00 0.13 0.00 64 1011.5
20260904164540 33 347 3.2 8.0 0.00 0.13 0.00 65 1011.4
20260904163035 32 334 1.6 6.4 0.00 0.13 0.00 68 1011.3
20260904161533 32 334 1.6 6.4 0.00 0.13 0.00 67 1011.2
20260904160028 32 334 1.6 6.4 0.00 0.13 0.00 68 1011.2
20260904154528 31 334 1.6 8.0 0.00 0.13 0.00 70 1011.1
20260904153020 30 331 1.6 4.8 0.00 0.13 0.00 72 1011.1
20260904151518 29 331 3.2 8.0 0.00 0.13 0.00 75 1011.1
20260904150019 28 329 1.6 8.0 0.00 0.13 0.00 80 1011.1
20260904144507 27 329 1.6 6.4 0.00 0.13 0.00 82 1011.1
20260904143009 26 329 1.6 6.4 0.00 0.13 0.00 85 1011.2
20260904141505 26 329 1.6 8.0 0.00 0.13 0.00 87 1011.2
20260904140004 25 327 1.6 8.0 0.00 0.13 0.00 88 1011.1
20260904134503 25 327 1.6 6.4 0.00 0.46 0.00 88 1010.9
20260904133006 25 327 0.0 4.8 0.00 0.46 0.00 88 1010.8
20260904131600 25 327 1.6 4.8 0.00 0.46 0.00 88 1010.7
20260904130059 25 318 0.0 6.4 0.00 0.46 0.00 88 1010.6
20260904124608 25 208 3.2 6.4 0.00 0.48 0.00 88 1010.5
20260904123057 25 208 0.0 6.4 0.00 0.48 0.00 88 1010.4
20260904121555 25 208 1.6 6.4 0.00 0.48 0.00 88 1010.3
20260904120059 25 207 1.6 8.0 0.00 0.48 0.00 88 1010.1
20260904114550 25 200 3.2 6.4 0.00 0.99 0.00 88 1010.1
20260904113050 25 199 1.6 8.0 0.00 0.99 0.00 88 1010.1
20260904111548 25 192 0.0 4.8 0.00 0.99 0.00 88 1010.1
20260904110047 25 190 1.6 6.4 0.00 0.99 0.00 88 1010.1
20260904104547 25 179 1.6 6.4 0.00 3.30 0.00 88 1010.0
20260904103044 26 179 1.6 3.2 0.00 3.30 0.00 87 1010.1
20260904101542 26 179 0.0 4.8 0.00 3.30 0.00 87 1010.2
20260904100043 26 179 0.0 6.4 0.00 3.30 0.00 87 1010.3
20260904094543 26 179 0.0 6.4 0.00 3.30 0.00 86 1010.4
20260904093042 26 179 1.6 4.8 0.00 3.30 0.00 86 1010.5
20260904091538 26 179 0.0 3.2 0.00 3.30 0.00 86 1010.5
20260904090035 26 179 0.0 3.2 0.00 3.30 0.00 86 1010.7
20260904084536 26 179 0.0 4.8 0.00 3.30 0.00 85 1010.7
20260904083032 26 179 0.0 3.2 0.00 3.30 0.00 85 1010.6
20260904081531 26 179 0.0 8.0 0.00 3.30 0.00 85 1010.7
20260904080030 26 178 1.6 4.8 0.00 3.30 0.00 84 1010.8
20260904074527 27 178 0.0 4.8 0.00 3.30 0.00 84 1010.8
20260904073026 27 178 1.6 6.4 0.00 3.30 0.00 84 1010.9
20260904071523 27 178 1.6 4.8 0.00 3.30 0.00 84 1011.0
20260904070019 27 178 1.6 4.8 0.00 3.30 0.00 84 1011.3
20260904064523 27 178 0.0 1.6 0.00 3.30 3.30 84 1011.5
20260904063026 27 178 0.0 3.2 0.00 3.30 3.30 83 1011.7
20260904061531 27 178 0.0 3.2 0.00 3.30 3.30 82 1011.8
20260904060022 27 178 0.0 3.2 0.00 3.30 3.30 82 1011.9
20260904054521 27 178 0.0 3.2 0.00 3.30 3.30 82 1012.1
20260904053016 27 178 0.0 1.6 0.00 3.30 3.30 81 1012.1
20260904051516 28 178 1.6 3.2 0.00 3.30 3.30 80 1012.1
20260904050023 28 178 0.0 3.2 0.00 3.30 3.30 78 1012.3
20260904044514 28 178 0.0 3.2 0.00 3.30 3.30 76 1012.2
20260904043015 28 178 0.0 1.6 0.00 3.30 3.30 75 1011.9
20260904041518 28 178 0.0 4.8 0.00 3.30 3.30 76 1011.8
20260904040028 28 178 0.0 3.2 0.00 3.30 3.30 77 1011.8
20260904034514 28 178 0.0 1.6 0.00 3.33 3.30 77 1011.6
20260904033012 28 178 0.0 1.6 0.00 3.33 3.30 77 1011.4
20260904031517 28 178 0.0 3.2 0.00 3.33 3.30 76 1011.2
20260904030014 28 178 0.0 3.2 0.00 3.33 3.30 76 1011.0
20260904024512 28 178 0.0 3.2 0.00 3.33 3.30 76 1010.8
20260904023017 28 178 0.0 3.2 0.00 3.33 3.30 74 1010.7
20260904021525 29 178 0.0 1.6 0.00 3.33 3.30 74 1010.7
20260904020009 30 178 0.0 3.2 0.00 3.33 3.30 73 1010.6
20260904014509 30 178 1.6 3.2 0.00 3.35 3.30 71 1010.6
20260904013008 31 178 0.0 3.2 0.00 3.35 3.30 68 1010.7
20260904011508 31 178 1.6 6.4 0.00 3.35 3.30 67 1010.8
20260904010007 31 178 1.6 8.0 0.00 3.35 3.30 67 1010.9
20260904004507 31 177 4.8 12.9 0.00 3.35 3.30 65 1010.9
20260904003014 32 171 6.4 9.7 0.00 3.35 3.30 64 1010.9
20260904001504 32 171 6.4 11.3 0.00 3.35 3.30 63 1010.6
20260904000005 33 161 8.0 14.5 0.00 3.35 3.30 60 1010.2
20260903234505 33 159 4.8 14.5 0.00 3.35 3.30 59 1010.1
20260903233004 33 173 6.4 11.3 0.00 3.35 3.30 58 1009.9